Year,Month,Day,Hour,Minute,Value (Times are PST for temperature in C)
2008,05,07,00,00,7.60
2008,05,07,00,01,7.60
2008,05,07,00,02,7.70
2008,05,07,00,03,7.70
2008,05,07,00,04,7.70
2008,05,07,00,05,7.70
2008,05,07,00,06,7.70
2008,05,07,00,07,7.70
2008,05,07,00,08,7.60
2008,05,07,00,09,7.60
2008,05,07,00,10,7.60
2008,05,07,00,11,7.60
2008,05,07,00,12,7.60
2008,05,07,00,13,7.50
2008,05,07,00,14,7.50
2008,05,07,00,15,7.50
2008,05,07,00,16,7.40
2008,05,07,00,17,7.40
2008,05,07,00,18,7.40
2008,05,07,00,19,7.30
2008,05,07,00,20,7.30
2008,05,07,00,21,7.30
2008,05,07,00,22,7.30
2008,05,07,00,23,7.30
2008,05,07,00,24,7.30
2008,05,07,00,25,7.30
2008,05,07,00,26,7.30
2008,05,07,00,27,7.30
2008,05,07,00,28,7.30
2008,05,07,00,29,7.20
2008,05,07,00,30,7.20
2008,05,07,00,31,7.20
2008,05,07,00,32,7.20
2008,05,07,00,33,7.20
2008,05,07,00,34,7.20
2008,05,07,00,35,7.20
2008,05,07,00,36,7.20
2008,05,07,00,37,7.20
2008,05,07,00,38,7.10
2008,05,07,00,39,7.10
2008,05,07,00,40,7.10
2008,05,07,00,41,7.10
2008,05,07,00,42,7.10
2008,05,07,00,43,7.10
2008,05,07,00,44,7.10
2008,05,07,00,45,7.10
2008,05,07,00,46,7.10
2008,05,07,00,47,7.10
2008,05,07,00,48,7.10
2008,05,07,00,49,7.10
2008,05,07,00,50,7.10
2008,05,07,00,51,7.10
2008,05,07,00,52,7.10
2008,05,07,00,53,7.10
2008,05,07,00,54,7.20
2008,05,07,00,55,7.20
2008,05,07,00,56,7.20
2008,05,07,00,57,7.20
2008,05,07,00,58,7.20
2008,05,07,00,59,7.20
2008,05,07,01,00,7.30
2008,05,07,01,01,7.30
2008,05,07,01,02,7.30
2008,05,07,01,03,7.30
2008,05,07,01,04,7.30
2008,05,07,01,05,7.30
2008,05,07,01,06,7.30
2008,05,07,01,07,7.30
2008,05,07,01,08,7.30
2008,05,07,01,09,7.30
2008,05,07,01,10,7.30
2008,05,07,01,11,7.30
2008,05,07,01,12,7.30
2008,05,07,01,13,7.30
2008,05,07,01,14,7.30
2008,05,07,01,15,7.30
2008,05,07,01,16,7.30
2008,05,07,01,17,7.30
2008,05,07,01,18,7.30
2008,05,07,01,19,7.30
2008,05,07,01,20,7.30
2008,05,07,01,21,7.30
2008,05,07,01,22,7.30
2008,05,07,01,23,7.30
2008,05,07,01,24,7.30
2008,05,07,01,25,7.30
2008,05,07,01,26,7.30
2008,05,07,01,27,7.30
2008,05,07,01,28,7.30
2008,05,07,01,29,7.30
2008,05,07,01,30,7.30
2008,05,07,01,31,7.30
2008,05,07,01,32,7.30
2008,05,07,01,33,7.30
2008,05,07,01,34,7.30
2008,05,07,01,35,7.30
2008,05,07,01,36,7.30
2008,05,07,01,37,7.30
2008,05,07,01,38,7.30
2008,05,07,01,39,7.40
2008,05,07,01,40,7.40
2008,05,07,01,41,7.40
2008,05,07,01,42,7.40
2008,05,07,01,43,7.40
2008,05,07,01,44,7.40
2008,05,07,01,45,7.40
2008,05,07,01,46,7.40
2008,05,07,01,47,7.40
2008,05,07,01,48,7.50
2008,05,07,01,49,7.50
2008,05,07,01,50,7.50
2008,05,07,01,51,7.50
2008,05,07,01,52,7.50
2008,05,07,01,53,7.50
2008,05,07,01,54,7.50
2008,05,07,01,55,7.50
2008,05,07,01,56,7.60
2008,05,07,01,57,7.60
2008,05,07,01,58,7.60
2008,05,07,01,59,7.50
2008,05,07,02,00,7.50
2008,05,07,02,01,7.50
2008,05,07,02,02,7.50
2008,05,07,02,03,7.50
2008,05,07,02,04,7.50
2008,05,07,02,05,7.50
2008,05,07,02,06,7.50
2008,05,07,02,07,7.50
2008,05,07,02,08,7.50
2008,05,07,02,09,7.50
2008,05,07,02,10,7.50
2008,05,07,02,11,7.50
2008,05,07,02,12,7.50
2008,05,07,02,13,7.40
2008,05,07,02,14,7.40
2008,05,07,02,15,7.40
2008,05,07,02,16,7.40
2008,05,07,02,17,7.40
2008,05,07,02,18,7.40
2008,05,07,02,19,7.40
2008,05,07,02,20,7.30
2008,05,07,02,21,7.30
2008,05,07,02,22,7.30
2008,05,07,02,23,7.30
2008,05,07,02,24,7.30
2008,05,07,02,25,7.30
2008,05,07,02,26,7.30
2008,05,07,02,27,7.30
2008,05,07,02,28,7.30
2008,05,07,02,29,7.30
2008,05,07,02,30,7.30
2008,05,07,02,31,7.30
2008,05,07,02,32,7.30
2008,05,07,02,33,7.30
2008,05,07,02,34,7.30
2008,05,07,02,35,7.30
2008,05,07,02,36,7.30
2008,05,07,02,37,7.30
2008,05,07,02,38,7.30
2008,05,07,02,39,7.30
2008,05,07,02,40,7.30
2008,05,07,02,41,7.30
2008,05,07,02,42,7.30
2008,05,07,02,43,7.30
2008,05,07,02,44,7.30
2008,05,07,02,45,7.30
2008,05,07,02,46,7.30
2008,05,07,02,47,7.30
2008,05,07,02,48,7.30
2008,05,07,02,49,7.30
2008,05,07,02,50,7.30
2008,05,07,02,51,7.20
2008,05,07,02,52,7.20
2008,05,07,02,53,7.20
2008,05,07,02,54,7.20
2008,05,07,02,55,7.20
2008,05,07,02,56,7.20
2008,05,07,02,57,7.20
2008,05,07,02,58,7.20
2008,05,07,02,59,7.20
2008,05,07,03,00,7.10
2008,05,07,03,01,7.10
2008,05,07,03,02,7.10
2008,05,07,03,03,7.10
2008,05,07,03,04,7.10
2008,05,07,03,05,7.00
2008,05,07,03,06,7.00
2008,05,07,03,07,7.00
2008,05,07,03,08,7.00
2008,05,07,03,09,7.00
2008,05,07,03,10,7.00
2008,05,07,03,11,6.90
2008,05,07,03,12,6.90
2008,05,07,03,13,6.90
2008,05,07,03,14,6.90
2008,05,07,03,15,6.90
2008,05,07,03,16,6.90
2008,05,07,03,17,6.90
2008,05,07,03,18,6.90
2008,05,07,03,19,6.90
2008,05,07,03,20,6.90
2008,05,07,03,21,6.90
2008,05,07,03,22,6.90
2008,05,07,03,23,6.90
2008,05,07,03,24,7.00
2008,05,07,03,25,7.00
2008,05,07,03,26,7.00
2008,05,07,03,27,7.00
2008,05,07,03,28,7.00
2008,05,07,03,29,7.00
2008,05,07,03,30,7.00
2008,05,07,03,31,7.00
2008,05,07,03,32,7.00
2008,05,07,03,33,7.00
2008,05,07,03,34,7.10
2008,05,07,03,35,7.10
2008,05,07,03,36,7.10
2008,05,07,03,37,7.10
2008,05,07,03,38,7.10
2008,05,07,03,39,7.20
2008,05,07,03,40,7.20
2008,05,07,03,41,7.20
2008,05,07,03,42,7.30
2008,05,07,03,43,7.30
2008,05,07,03,44,7.30
2008,05,07,03,45,7.30
2008,05,07,03,46,7.30
2008,05,07,03,47,7.30
2008,05,07,03,48,7.30
2008,05,07,03,49,7.30
2008,05,07,03,50,7.30
2008,05,07,03,51,7.30
2008,05,07,03,52,7.30
2008,05,07,03,53,7.30
2008,05,07,03,54,7.40
2008,05,07,03,55,7.40
2008,05,07,03,56,7.40
2008,05,07,03,57,7.40
2008,05,07,03,58,7.40
2008,05,07,03,59,7.40
2008,05,07,04,00,7.40
2008,05,07,04,01,7.50
2008,05,07,04,02,7.50
2008,05,07,04,03,7.50
2008,05,07,04,04,7.50
2008,05,07,04,05,7.50
2008,05,07,04,06,7.50
2008,05,07,04,07,7.50
2008,05,07,04,08,7.50
2008,05,07,04,09,7.50
2008,05,07,04,10,7.50
2008,05,07,04,11,7.60
2008,05,07,04,12,7.60
2008,05,07,04,13,7.60
2008,05,07,04,14,7.60
2008,05,07,04,15,7.70
2008,05,07,04,16,7.70
2008,05,07,04,17,7.70
2008,05,07,04,18,7.70
2008,05,07,04,19,7.70
2008,05,07,04,20,7.70
2008,05,07,04,21,7.70
2008,05,07,04,22,7.70
2008,05,07,04,23,7.70
2008,05,07,04,24,7.70
2008,05,07,04,25,7.60
2008,05,07,04,26,7.60
2008,05,07,04,27,7.60
2008,05,07,04,28,7.60
2008,05,07,04,29,7.60
2008,05,07,04,30,7.60
2008,05,07,04,31,7.60
2008,05,07,04,32,7.60
2008,05,07,04,33,7.60
2008,05,07,04,34,7.50
2008,05,07,04,35,7.50
2008,05,07,04,36,7.50
2008,05,07,04,37,7.50
2008,05,07,04,38,7.50
2008,05,07,04,39,7.50
2008,05,07,04,40,7.40
2008,05,07,04,41,7.40
2008,05,07,04,42,7.40
2008,05,07,04,43,7.40
2008,05,07,04,44,7.30
2008,05,07,04,45,7.30
2008,05,07,04,46,7.30
2008,05,07,04,47,7.30
2008,05,07,04,48,7.30
2008,05,07,04,49,7.30
2008,05,07,04,50,7.30
2008,05,07,04,51,7.20
2008,05,07,04,52,7.20
2008,05,07,04,53,7.20
2008,05,07,04,54,7.10
2008,05,07,04,55,7.10
2008,05,07,04,56,7.10
2008,05,07,04,57,7.00
2008,05,07,04,58,7.00
2008,05,07,04,59,7.00
2008,05,07,05,00,7.00
2008,05,07,05,01,7.00
2008,05,07,05,02,6.90
2008,05,07,05,03,6.90
2008,05,07,05,04,6.90
2008,05,07,05,05,6.80
2008,05,07,05,06,6.80
2008,05,07,05,07,6.80
2008,05,07,05,08,6.80
2008,05,07,05,09,6.80
2008,05,07,05,10,6.80
2008,05,07,05,11,6.70
2008,05,07,05,12,6.70
2008,05,07,05,13,6.70
2008,05,07,05,14,6.70
2008,05,07,05,15,6.70
2008,05,07,05,16,6.60
2008,05,07,05,17,6.60
2008,05,07,05,18,6.60
2008,05,07,05,19,6.60
2008,05,07,05,20,6.60
2008,05,07,05,21,6.50
2008,05,07,05,22,6.40
2008,05,07,05,23,6.40
2008,05,07,05,24,6.40
2008,05,07,05,25,6.40
2008,05,07,05,26,6.40
2008,05,07,05,27,6.40
2008,05,07,05,28,6.30
2008,05,07,05,29,6.30
2008,05,07,05,30,6.30
2008,05,07,05,31,6.30
2008,05,07,05,32,6.20
2008,05,07,05,33,6.20
2008,05,07,05,34,6.20
2008,05,07,05,35,6.20
2008,05,07,05,36,6.20
2008,05,07,05,37,6.20
2008,05,07,05,38,6.20
2008,05,07,05,39,6.20
2008,05,07,05,40,6.10
2008,05,07,05,41,6.10
2008,05,07,05,42,6.10
2008,05,07,05,43,6.00
2008,05,07,05,44,6.00
2008,05,07,05,45,6.00
2008,05,07,05,46,5.90
2008,05,07,05,47,5.90
2008,05,07,05,48,5.90
2008,05,07,05,49,5.80
2008,05,07,05,50,5.80
2008,05,07,05,51,5.80
2008,05,07,05,52,5.80
2008,05,07,05,53,5.80
2008,05,07,05,54,5.80
2008,05,07,05,55,5.80
2008,05,07,05,56,5.80
2008,05,07,05,57,5.80
2008,05,07,05,58,5.80
2008,05,07,05,59,5.70
2008,05,07,06,00,5.70
2008,05,07,06,01,5.70
2008,05,07,06,02,5.70
2008,05,07,06,03,5.70
2008,05,07,06,04,5.70
2008,05,07,06,05,5.70
2008,05,07,06,06,5.70
2008,05,07,06,07,5.70
2008,05,07,06,08,5.70
2008,05,07,06,09,5.60
2008,05,07,06,10,5.60
2008,05,07,06,11,5.70
2008,05,07,06,12,5.70
2008,05,07,06,13,5.70
2008,05,07,06,14,5.70
2008,05,07,06,15,5.70
2008,05,07,06,16,5.70
2008,05,07,06,17,5.70
2008,05,07,06,18,5.70
2008,05,07,06,19,5.70
2008,05,07,06,20,5.70
2008,05,07,06,21,5.80
2008,05,07,06,22,5.90
2008,05,07,06,23,5.90
2008,05,07,06,24,6.00
2008,05,07,06,25,6.00
2008,05,07,06,26,6.10
2008,05,07,06,27,6.10
2008,05,07,06,28,6.10
2008,05,07,06,29,6.10
2008,05,07,06,30,6.10
2008,05,07,06,31,6.10
2008,05,07,06,32,6.10
2008,05,07,06,33,6.10
2008,05,07,06,34,6.20
2008,05,07,06,35,6.20
2008,05,07,06,36,6.20
2008,05,07,06,37,6.20
2008,05,07,06,38,6.20
2008,05,07,06,39,6.20
2008,05,07,06,40,6.20
2008,05,07,06,41,6.20
2008,05,07,06,42,6.20
2008,05,07,06,43,6.30
2008,05,07,06,44,6.30
2008,05,07,06,45,6.30
2008,05,07,06,46,6.40
2008,05,07,06,47,6.40
2008,05,07,06,48,6.40
2008,05,07,06,49,6.40
2008,05,07,06,50,6.40
2008,05,07,06,51,6.50
2008,05,07,06,52,6.60
2008,05,07,06,53,6.60
2008,05,07,06,54,6.60
2008,05,07,06,55,6.60
2008,05,07,06,56,6.60
2008,05,07,06,57,6.60
2008,05,07,06,58,6.70
2008,05,07,06,59,6.70
2008,05,07,07,00,6.70
2008,05,07,07,01,6.70
2008,05,07,07,02,6.80
2008,05,07,07,03,6.80
2008,05,07,07,04,6.80
2008,05,07,07,05,6.80
2008,05,07,07,06,6.80
2008,05,07,07,07,6.80
2008,05,07,07,08,6.70
2008,05,07,07,09,6.70
2008,05,07,07,10,6.70
2008,05,07,07,11,6.70
2008,05,07,07,12,6.70
2008,05,07,07,13,6.70
2008,05,07,07,14,6.70
2008,05,07,07,15,6.70
2008,05,07,07,16,6.70
2008,05,07,07,17,6.80
2008,05,07,07,18,6.80
2008,05,07,07,19,6.80
2008,05,07,07,20,6.80
2008,05,07,07,21,6.80
2008,05,07,07,22,6.80
2008,05,07,07,23,6.80
2008,05,07,07,24,6.80
2008,05,07,07,25,6.90
2008,05,07,07,26,6.90
2008,05,07,07,27,6.90
2008,05,07,07,28,7.00
2008,05,07,07,29,7.00
2008,05,07,07,30,7.00
2008,05,07,07,31,7.10
2008,05,07,07,32,7.10
2008,05,07,07,33,7.10
2008,05,07,07,34,7.20
2008,05,07,07,35,7.20
2008,05,07,07,36,7.20
2008,05,07,07,37,7.30
2008,05,07,07,38,7.30
2008,05,07,07,39,7.30
2008,05,07,07,40,7.30
2008,05,07,07,41,7.40
2008,05,07,07,42,7.40
2008,05,07,07,43,7.40
2008,05,07,07,44,7.50
2008,05,07,07,45,7.50
2008,05,07,07,46,7.60
2008,05,07,07,47,7.60
2008,05,07,07,48,7.60
2008,05,07,07,49,7.70
2008,05,07,07,50,7.80
2008,05,07,07,51,7.80
2008,05,07,07,52,7.80
2008,05,07,07,53,7.90
2008,05,07,07,54,7.90
2008,05,07,07,55,8.00
2008,05,07,07,56,8.10
2008,05,07,07,57,8.10
2008,05,07,07,58,8.20
2008,05,07,07,59,8.20
2008,05,07,08,00,8.30
2008,05,07,08,01,8.30
2008,05,07,08,02,8.40
2008,05,07,08,03,8.40
2008,05,07,08,04,8.50
2008,05,07,08,05,8.50
2008,05,07,08,06,8.60
2008,05,07,08,07,8.60
2008,05,07,08,08,8.60
2008,05,07,08,09,8.70
2008,05,07,08,10,8.70
2008,05,07,08,11,8.70
2008,05,07,08,12,8.70
2008,05,07,08,13,8.70
2008,05,07,08,14,8.70
2008,05,07,08,15,8.70
2008,05,07,08,16,8.80
2008,05,07,08,17,8.80
2008,05,07,08,18,8.80
2008,05,07,08,19,8.90
2008,05,07,08,20,8.90
2008,05,07,08,21,8.90
2008,05,07,08,22,9.00
2008,05,07,08,23,9.00
2008,05,07,08,24,9.00
2008,05,07,08,25,9.00
2008,05,07,08,26,9.00
2008,05,07,08,27,9.10
2008,05,07,08,28,9.10
2008,05,07,08,29,9.10
2008,05,07,08,30,9.10
2008,05,07,08,31,9.10
2008,05,07,08,32,9.10
2008,05,07,08,33,9.20
2008,05,07,08,34,9.20
2008,05,07,08,35,9.20
2008,05,07,08,36,9.20
2008,05,07,08,37,9.20
2008,05,07,08,38,9.20
2008,05,07,08,39,9.20
2008,05,07,08,40,9.20
2008,05,07,08,41,9.20
2008,05,07,08,42,9.20
2008,05,07,08,43,9.20
2008,05,07,08,44,9.20
2008,05,07,08,45,9.20
2008,05,07,08,46,9.20
2008,05,07,08,47,9.30
2008,05,07,08,48,9.30
2008,05,07,08,49,9.30
2008,05,07,08,50,9.30
2008,05,07,08,51,9.40
2008,05,07,08,52,9.40
2008,05,07,08,53,9.50
2008,05,07,08,54,9.50
2008,05,07,08,55,9.60
2008,05,07,08,56,9.60
2008,05,07,08,57,9.70
2008,05,07,08,58,9.70
2008,05,07,08,59,9.70
2008,05,07,09,00,9.70
2008,05,07,09,01,9.70
2008,05,07,09,02,9.70
2008,05,07,09,03,9.70
2008,05,07,09,04,9.70
2008,05,07,09,05,9.70
2008,05,07,09,06,9.70
2008,05,07,09,07,9.80
2008,05,07,09,08,9.80
2008,05,07,09,09,9.80
2008,05,07,09,10,9.80
2008,05,07,09,11,9.80
2008,05,07,09,12,9.90
2008,05,07,09,13,9.90
2008,05,07,09,14,9.90
2008,05,07,09,15,10.00
2008,05,07,09,16,10.10
2008,05,07,09,17,10.10
2008,05,07,09,18,9.90
2008,05,07,09,19,9.90
2008,05,07,09,20,9.90
2008,05,07,09,21,9.90
2008,05,07,09,22,9.90
2008,05,07,09,23,10.00
2008,05,07,09,24,9.90
2008,05,07,09,25,10.00
2008,05,07,09,26,10.10
2008,05,07,09,27,10.10
2008,05,07,09,28,10.10
2008,05,07,09,29,10.10
2008,05,07,09,30,10.10
2008,05,07,09,31,10.10
2008,05,07,09,32,10.10
2008,05,07,09,33,10.20
2008,05,07,09,34,10.20
2008,05,07,09,35,10.20
2008,05,07,09,36,10.20
2008,05,07,09,37,10.30
2008,05,07,09,38,10.30
2008,05,07,09,39,10.30
2008,05,07,09,40,10.30
2008,05,07,09,41,10.20
2008,05,07,09,42,10.20
2008,05,07,09,43,10.10
2008,05,07,09,44,10.10
2008,05,07,09,45,10.10
2008,05,07,09,46,9.90
2008,05,07,09,47,9.90
2008,05,07,09,48,9.90
2008,05,07,09,49,9.90
2008,05,07,09,50,9.90
2008,05,07,09,51,9.90
2008,05,07,09,52,9.90
2008,05,07,09,53,9.90
2008,05,07,09,54,9.90
2008,05,07,09,55,10.00
2008,05,07,09,56,10.10
2008,05,07,09,57,10.10
2008,05,07,09,58,10.10
2008,05,07,09,59,10.20
2008,05,07,10,00,10.20
2008,05,07,10,01,10.20
2008,05,07,10,02,10.30
2008,05,07,10,03,10.30
2008,05,07,10,04,10.30
2008,05,07,10,05,10.30
2008,05,07,10,06,10.40
2008,05,07,10,07,10.40
2008,05,07,10,08,10.40
2008,05,07,10,09,10.50
2008,05,07,10,10,10.60
2008,05,07,10,11,10.60
2008,05,07,10,12,10.60
2008,05,07,10,13,10.60
2008,05,07,10,14,10.70
2008,05,07,10,15,10.70
2008,05,07,10,16,10.70
2008,05,07,10,17,10.70
2008,05,07,10,18,10.60
2008,05,07,10,19,10.60
2008,05,07,10,20,10.60
2008,05,07,10,21,10.60
2008,05,07,10,22,10.40
2008,05,07,10,23,10.40
2008,05,07,10,24,10.40
2008,05,07,10,25,10.40
2008,05,07,10,26,10.40
2008,05,07,10,27,10.40
2008,05,07,10,28,10.40
2008,05,07,10,29,10.40
2008,05,07,10,30,10.30
2008,05,07,10,31,10.30
2008,05,07,10,32,10.30
2008,05,07,10,33,10.30
2008,05,07,10,34,10.30
2008,05,07,10,35,10.30
2008,05,07,10,36,10.40
2008,05,07,10,37,10.40
2008,05,07,10,38,10.40
2008,05,07,10,39,10.60
2008,05,07,10,40,10.60
2008,05,07,10,41,10.60
2008,05,07,10,42,10.60
2008,05,07,10,43,10.60
2008,05,07,10,44,10.60
2008,05,07,10,45,10.60
2008,05,07,10,46,10.60
2008,05,07,10,47,10.70
